Location: Unspecified
(32.5099°N, 80.0190°W)
Time: 00:36:19
(UTC-04:00)

CZ-3 Stage 3 - Visible Passes

Search period start: 07 May 2015 00:00
Search period end: 17 May 2015 00:00
Orbit: 418 x 34810 km, 31.0° (Epoch: 05 May)

Date Brightness Start Highest point End Pass type
(mag) Time Alt. Az. Time Alt. Az. Time Alt. Az.
08 May 6.8 11:19:52 10° WSW 20:15:56 49° SW 20:48:00 10° S visible
11 May 6.8 11:14:55 10° WSW 20:10:16 47° SW 20:42:38 10° S visible
14 May 6.9 11:09:59 10° WSW 20:04:32 45° WSW 20:37:12 10° S visible
